This is the latest recevied weather packets stored in our database for station/object E22ZMG-4. If no packets are shown the sender has not sent any weather packets the latest 10 day(s).
| Time | Temp. | Humidity | Pressure | Rain* | Wind** | Luminosity | Snow |
|---|---|---|---|---|---|---|---|
| 1777689462 | 31.67° C | 41% | 977 hPa | - | - | 0 W/m² | - |
| 1777688839 | 31.67° C | 41% | 977 hPa | - | - | 0 W/m² | - |
| 1777688214 | 31.11° C | 40% | 977 hPa | - | - | 0 W/m² | - |
| 1777687589 | 30.56° C | 41% | 977 hPa | - | - | 0 W/m² | - |
| 1777686965 | 28.89° C | 42% | 977 hPa | - | - | 0 W/m² | - |
| 1777686340 | 30° C | 45% | 977 hPa | - | - | 0 W/m² | - |
| 1777685716 | 31.11° C | 50% | 977 hPa | - | - | 0 W/m² | - |
| 1777685092 | 31.11° C | 52% | 977 hPa | - | - | 0 W/m² | - |
| 1777684467 | 31.11° C | 52% | 977 hPa | - | - | 0 W/m² | - |
| 1777683843 | 30.56° C | 52% | 976 hPa | - | - | 0 W/m² | - |
| 1777683219 | 30.56° C | 53% | 976 hPa | - | - | 0 W/m² | - |
| 1777682594 | 30.56° C | 53% | 976 hPa | - | - | 0 W/m² | - |
| 1777681969 | 30° C | 53% | 976 hPa | - | - | 0 W/m² | - |
| 1777681344 | 30° C | 53% | 976 hPa | - | - | 0 W/m² | - |
| 1777680719 | 30° C | 53% | 976 hPa | - | - | 0 W/m² | - |
| 1777680272 | 30° C | 53% | 976 hPa | - | - | 0 W/m² | - |
| 1777679647 | 30° C | 53% | 975 hPa | - | - | 0 W/m² | - |
| 1777679022 | 30° C | 53% | 975 hPa | - | - | 0 W/m² | - |
| 1777678397 | 30° C | 53% | 975 hPa | - | - | 0 W/m² | - |
| 1777677772 | 30° C | 52% | 975 hPa | - | - | 0 W/m² | - |
| 1777677146 | 30° C | 52% | 975 hPa | - | - | 0 W/m² | - |
| 1777676521 | 30° C | 52% | 975 hPa | - | - | 0 W/m² | - |
| 1777675897 | 30° C | 52% | 975 hPa | - | - | 0 W/m² | - |
| 1777675272 | 30° C | 52% | 975 hPa | - | - | 0 W/m² | - |
| 1777674648 | 30.56° C | 52% | 974 hPa | - | - | 0 W/m² | - |
* Rain since midnight (hover to see other rain measurements)
** Current wind speed in m/s (hover to see current wind gust speed)